Create Custom Reports and Graphics: Custom Report

North Region Latest Observations

Map

10 Minute Data

Winnemucca/Elko Latest Observations

Map

10 Minute Data

South Region Latest Observations

Map

10 Minute Data

Latest Observation

65 Stations

10 Minute Data
as of 5/5/26 6:48 AM PDT
Station Date Time Temp (°F) RH (%) Dew Pt (°F) Wind Spd (mph) Wind Dir (°) Wind Gust (mph) Wind Gst Dir (°) Latest Rain (In) Soil Moist (%) Soil Temp (°F) Daily Rain (In) Daily Min Temp (°F) Daily Max Temp (°F) Daily Max Wind (mph)
Hobart Mills 5/5/26 0640 37.2   2.6 100   0 37.2   2.6 0.0   0.0 N | 0 0.0   0.0 NE | 49 0.00 - 32.0   0.0 0.03 34.4   0.1 45.9   8.9 6.0   3.5
Prosser Dam 5/5/26 0640 37.8   0.2 98   0 37.1   0.2 0.7   0.5 ESE | 119 1.7   1.6 ESE | 106 0.00 24.6   3.8 46.4   2.0 0.00 36.7   0.5 37.8   1.8 4.1   3.5
West Incline Village 5/5/26 0640 34.4   4.3 100   10 34.4   1.5 0.6   1.9 NE | 37 3.2   2.7 NE | 49 0.01 35.7   4.8 43.4   1.1 0.23 32.5   3.7 34.7   5.7 3.2   5.0
Incline Village (Fairview Blvd) 5/5/26 0640 34.7   4.9 100   11 34.6   1.9 0.0   0.0 N | 0 0.0   0.0 NNE | 27 0.00 29.6   3.8 49.8   2.0 0.19 33.5   5.1 34.9   6.3 1.5   2.5
Incline Village (Diamond Peak) 5/5/26 0640 33.6   4.0 99   10 33.4   1.2 0.0   0.8 N | 0 0.0   1.5 WSW | 241 0.00 8.2   0.1 41.2   3.1 0.02 31.8   5.6 33.6   5.8 0.0   5.0
Incline Village (Mill Creek) 5/5/26 0640 36.0   3.8 98   12 35.5   0.4 0.0   0.7 N | 0 0.0   2.2 E | 80 0.00 11.2   1.5 45.4   0.9 0.12 33.8   4.0 36.3   4.8 1.7   3.5
Incline Village (Lakeshore Blvd) 5/5/26 0640 37.5   1.3 100   6 37.4   0.4 0.0   1.0 N | 0 0.0   3.6 NNW | 346 0.00 36.9   2.4 46.2   3.5 0.02 35.8   1.5 37.8   3.8 2.6   2.1
Glenbrook 5/5/26 0640 36.3   2.9 96   2 35.2   2.4 0.0   0.0 N | 0 0.0   0.0 ESE | 110 0.00 44.3   0.0 44.6   0.5 0.05 34.2   5.0 36.6   4.3 6.0   1.6
Zephyr Cove 5/5/26 0640 34.8   6.9 100   11 34.7   3.8 0.0   0.2 N | 0 0.0   1.6 NW | 307 0.01 - 34.3   0.0 0.01 32.6   8.3 35.0   6.9 0.0   1.6
Kingsbury Grade 5/5/26 0640 33.7   6.3 98   4 33.2   5.1 0.0   0.0 N | 0 0.0   0.0 N | 10 0.01 5.2   0.4 47.0   4.7 0.09 32.0   6.4 34.0   6.5 0.0   2.7
South Daggett Pass (Ridge) 5/5/26 0640 32.7   4.7 100   1 32.7   4.4 3.3   0.5 W | 279 7.1   1.0 W | 272 0.01 6.4   0.1 46.4   1.8 0.01 31.2   5.2 32.9   5.1 10.3   3.7
Palomino Valley 5/5/26 0640 48.1   0.0 86   13 44.2   4.4 0.0   0.2 N | 0 0.0   2.6 SSE | 155 0.00 6.8   0.0 61.5   1.4 0.00 46.2   1.2 48.2   3.3 5.1   0.1
East Cold Springs 5/5/26 0640 42.7   1.2 89   11 39.8   2.1 7.9   5.4 WSW | 253 13.8   6.3 W | 260 0.00 1.6   0.1 53.5   1.4 0.09 40.3   3.2 43.5   4.4 17.8   2.4
Peavine 5/5/26 0640 43.8   1.4 86   18 39.9   4.4 4.3   2.4 NNE | 14 7.0   3.2 N | 351 0.00 - 53.4   0.0 0.00 40.7   0.7 44.3   5.0 16.3   5.1
West Verdi Peak 5/5/26 0640 38.8   1.6 93   12 36.9   2.0 0.1   2.8 SSE | 148 1.2   5.8 N | 11 0.00 21.9   5.7 48.8   1.3 0.00 37.1   2.5 39.9   6.7 11.7   0.1
West Verdi 5/5/26 0640 42.7   2.0 90   14 40.1   2.3 1.4   2.2 SW | 222 2.6   3.4 SSW | 194 0.00 8.3   0.5 56.6   2.3 0.00 40.2   3.8 42.9   5.7 6.5   3.0
South Verdi 5/5/26 0640 42.8   2.9 82   13 37.8   1.6 13.2   4.4 WSW | 248 17.0   4.0 WSW | 248 0.00 16.8   0.7 50.0   4.1 0.00 41.1   3.7 42.9   6.1 23.4   5.7
Northwest Reno 5/5/26 0640 44.6   3.8 87   23 41.1   4.1 3.9   0.7 E | 91 6.8   0.4 E | 91 0.00 23.5   0.3 57.9   2.9 0.00 43.5   4.3 45.5   6.8 13.5   10.8
North Lawton 5/5/26 0640 44.0   2.7 81   13 38.6   1.9 7.8   1.4 SW | 229 12.4   1.4 SW | 226 0.00 - 39.1   0.0 0.00 42.5   4.1 44.1   5.4 16.8   3.4
West Reno (Mogul) 5/5/26 0640 45.5   1.4 79   11 39.4   2.3 0.5   4.8 W | 266 3.0   5.0 WSW | 257 0.00 38.5   0.1 60.2   0.9 0.00 42.6   4.0 46.7   6.4 13.5   3.7
Caughlin (Hunter Lake Trail) 9/16/25 0800 59.7   3.5 41   11 35.9   2.7 0.0   0.0 N | 0 0.0   0.0 ENE | 66 0.00 15.7   0.0 69.8   0.5 0.00 55.7   3.2 67.7   9.1 9.4   0.9
ArrowCreek 5/5/26 0640 44.7   2.4 87   19 41.1   4.1 0.0   0.5 N | 0 0.0   5.0 SE | 131 0.00 - 32.0   0.0 0.00 43.4   2.1 44.9   5.4 4.3   5.8
Tracy 5/5/26 0640 49.4   4.1 74   18 41.5   3.3 9.6   0.4 WSW | 244 13.3   1.7 WSW | 252 0.00 7.7   0.3 60.9   2.5 0.00 47.8   4.9 49.6   4.9 19.0   0.5
Virginia Highlands 5/5/26 0640 40.9   4.2 95   30 39.5   5.7 0.7   0.7 NW | 304 4.2   4.2 NW | 322 0.00 9.6   2.4 55.7   1.2 0.00 40.1   3.7 41.4   5.8 8.2   0.3
Virginia City 5/5/26 0640 42.6   1.0 87   19 39.1   5.4 10.7   7.8 NNW | 347 15.2   7.0 N | 2 0.00 8.2   0.2 51.7   2.8 0.01 38.6   4.6 43.1   5.3 21.1   5.0
Six Mile Canyon 9/9/25 0630 60.2   9.6 37   6 33.7   4.8 4.1   2.5 W | 277 6.1   2.9 WNW | 286 0.00 12.5   0.0 75.5   0.7 0.00 57.9   7.6 64.4   1.9 7.0   3.9
Mt Rose Highway 4/30/26 0510 40.8   4.7 47   13 22.3   1.3 2.3   0.2 WSW | 243 4.8   2.1 WSW | 246 0.00 24.1   0.3 43.0   0.8 0.00 40.5   4.7 43.0   5.3 7.7   0.4
Pleasant Valley 5/5/26 0640 44.2   1.4 92   18 42.0   4.1 0.6   2.3 NNW | 342 2.2   3.1 NNW | 340 0.00 2.8   0.0 58.6   3.2 0.01 43.3   0.0 44.4   4.6 6.0   1.7
New Washoe City 5/5/26 0640 43.5   1.1 95   17 42.2   3.9 0.0   0.0 N | 0 0.0   0.0 SW | 218 0.00 4.4   0.1 56.4   2.0 0.01 42.8   0.3 43.8   4.8 4.7   5.5
Franktown Creek 5/5/26 0640 43.8   1.2 98   22 43.2   5.4 0.1   0.2 WNW | 297 1.2   1.4 WNW | 301 0.00 10.9   0.3 53.8   2.1 0.01 42.8   0.2 43.9   2.6 4.6   0.9
Musgrove Creek 5/5/26 0640 41.9   3.0 92   21 39.7   3.6 0.1   1.0 WSW | 243 1.1   1.4 WSW | 247 0.00 44.9   1.1 52.2   0.9 0.01 40.8   1.9 42.1   7.5 8.3   3.0
East Carson 11/23/24 0110 28.6   28.4 - - 4.7   11.0 SW | 220 14.7   10.1 SW | 219 0.02 - 50.9   0.1 0.02 -25.9   79.1 42.9   14.6 16.0   10.7
Kings Canyon 5/5/26 0640 42.6   2.4 96   24 41.6   5.1 1.1   2.4 ENE | 75 2.5   3.2 NE | 34 0.00 15.1   0.1 53.3   2.2 0.05 41.5   0.4 42.8   5.3 6.7   2.7
Carson City (Voltaire Canyon) 5/5/26 0640 43.2   4.8 92   26 41.0   3.7 7.6   4.3 S | 174 8.9   3.8 S | 174 0.00 2.8   0.1 60.8   1.4 0.01 42.1   4.3 43.5   7.4 13.4   10.7
Jacks Valley 5/5/26 0640 42.1   5.6 95   34 40.7   5.8 0.4   2.7 SSW | 211 2.1   3.1 SW | 224 0.00 12.3   2.8 53.9   4.9 0.13 41.5   3.7 42.2   7.8 7.5   9.6
Genoa 5/5/26 0640 43.9   1.7 97   24 43.1   5.5 0.0   0.0 N | 0 0.0   0.0 SW | 221 0.00 12.5   7.0 50.1   2.0 0.15 43.6   1.9 44.6   8.5 3.7   9.3
South Genoa (Walleys Hot Springs) 5/5/26 0640 44.9   0.6 91   13 42.4   3.5 0.8   0.6 NNW | 341 4.5   0.4 NNW | 337 0.00 14.6   1.0 60.4   2.1 0.14 44.2   0.9 45.4   5.3 7.9   0.3
SW Gardnerville (HWY 88) 5/5/26 0640 43.5   1.4 86   5 39.5   0.1 6.3   5.9 SE | 128 8.7   5.6 ESE | 121 0.00 3.3   0.1 54.4   1.6 0.01 43.4   1.4 44.3   4.5 8.7   0.1
Sheridan 5/5/26 0640 43.7   1.9 94   20 42.2   4.3 2.6   1.2 WNW | 286 4.0   1.7 W | 278 0.00 6.6   4.3 56.5   1.5 0.12 43.1   1.1 44.6   5.4 8.7   1.5
Ruhenstroth 5/5/26 0640 42.6   3.9 85   15 38.5   0.9 5.6   4.2 ESE | 123 8.3   5.8 SE | 131 0.00 12.7   0.1 54.7   1.3 0.51 42.4   3.2 44.5   6.7 9.4   7.1
Double Spring 5/5/26 0640 39.4   3.2 90   13 36.7   0.7 3.5   0.8 SE | 130 7.3   0.5 ESE | 116 0.03 28.5   0.0 52.1   1.4 0.21 38.5   0.5 41.7   2.4 10.4   3.4
North Topaz Lake 5/5/26 0640 41.4   5.1 96   32 40.2   5.4 0.7   3.6 NE | 53 4.1   11.2 NNE | 25 0.04 8.9   0.2 51.7   1.0 0.19 41.4   3.9 44.1   7.1 20.7   4.7
Wild Oat Mountain 5/5/26 0640 38.9   6.3 92   29 36.7   3.3 0.2   6.3 WNW | 293 1.6   11.4 WNW | 293 0.04 16.4   0.1 55.4   1.7 0.16 38.6   5.9 42.2   5.8 14.4   1.4
Smith Valley 5/5/26 0640 44.3   3.7 92   29 42.0   6.1 5.2   4.8 NW | 304 7.5   3.6 WNW | 297 0.02 5.7   0.2 58.2   1.4 0.18 44.3   0.9 46.4   6.8 7.5   3.0
Pine Grove Mountain 5/5/26 0640 31.9   7.0 97   34 31.1   3.9 4.9   0.2 NW | 307 7.2   0.2 NW | 314 0.00 18.3   3.7 44.0   2.5 0.03 31.8   6.7 33.0   7.7 7.2   2.7
Paradise Hill 5/5/26 0640 47.5   0.9 72   21 38.8   8.0 1.6   0.7 NE | 56 5.7   1.6 NE | 47 0.00 8.0   0.0 59.5   0.6 0.00 43.5   3.3 53.5   7.1 12.8   0.2
Winnemucca 5/5/26 0640 46.2   0.9 83   24 41.3   8.1 5.8   1.3 S | 189 9.1   3.1 SSW | 193 0.00 5.9   0.0 57.8   0.3 0.00 44.4   0.0 49.8   5.9 14.4   5.7
NE Elko 5/5/26 0640 48.7   10.7 64   12 37.1   15.4 5.1   5.1 SW | 227 9.4   9.4 W | 262 0.00 12.4   0.0 57.5   2.2 0.00 44.8   11.3 51.4   7.5 19.0   12.4
North Elko 5/5/26 0640 43.2   2.8 79   33 37.2   10.8 6.2   5.5 SW | 224 8.2   5.5 SW | 230 0.00 28.6   0.0 56.9   1.2 0.00 43.0   2.5 46.4   10.4 17.3   6.2
South Elko 5/5/26 0640 64.8   7.0 88   35 61.4   20.4 4.0   1.0 SSE | 161 6.5   0.1 SSE | 148 0.00 18.6   0.0 55.6   1.6 0.00 46.2   3.6 106.2   13.5 15.4   7.1
Lamoille 1/28/26 1720 33.2   0.5 65   17 22.8   6.3 5.8   1.5 SSE | 166 7.7   1.9 SE | 139 0.00 12.2   0.0 33.4   0.1 0.02 23.5   2.0 36.5   5.9 25.6   17.4
Reid Gardner Sub 5/5/26 0640 56.2   8.3 45   10 35.4   1.2 3.1   0.7 SW | 214 7.6   3.7 S | 182 0.00 24.1   0.3 71.6   1.2 0.00 54.6   9.7 66.5   6.1 15.4   3.7
Corn Creek 5/5/26 0640 53.9   6.7 50   8 35.8   1.5 4.1   1.7 SE | 132 7.3   2.6 SSE | 149 0.00 3.9   0.1 69.6   3.9 0.00 52.1   7.1 58.0   11.4 12.3   5.7
Lucky Strike 5/5/26 0640 44.1   9.1 51   30 27.1   12.8 2.1   1.5 NNW | 329 3.2   2.0 N | 352 0.00 4.3   0.0 63.6   1.6 0.00 42.4   8.6 49.7   10.5 9.6   18.4
Lower Angel Peak 5/5/26 0640 36.8   6.7 62   36 25.0   14.0 3.0   2.2 SSE | 156 3.7   5.1 SSE | 164 0.00 10.2   0.2 54.3   1.0 0.00 33.6   7.9 39.8   14.5 8.8   9.4
Angel Peak 5/5/26 0640 29.9   11.5 72   56 21.9   23.7 8.2   5.0 SE | 134 11.8   2.9 SE | 139 0.00 3.5   0.1 46.2   1.1 0.00 29.5   9.1 35.6   7.0 11.8   22.7
Upper Kyle Canyon 5/5/26 0640 33.3   9.2 52   33 17.5   14.6 1.4   1.4 N | 6 2.6   4.0 NNW | 332 0.00 13.7   0.0 54.2   1.3 0.00 30.5   6.2 37.7   10.2 8.4   10.9
Mt Charleston 5/5/26 0640 33.6   6.8 52   27 18.1   10.5 0.3   0.8 WNW | 302 2.7   0.6 WNW | 294 0.00 18.3   0.1 48.2   0.1 0.00 31.3   8.1 37.4   11.4 7.2   6.6
Mid Kyle Canyon 5/5/26 0640 37.7   7.7 50   29 20.9   12.7 6.3   1.7 WNW | 297 8.8   2.0 WNW | 291 0.00 7.0   0.0 56.4   0.9 0.00 34.8   7.7 41.6   13.0 14.0   4.1
Blue Diamond 5/5/26 0640 50.3   5.1 51   10 32.9   0.6 2.3   1.2 NNE | 22 3.6   1.1 NNW | 337 0.00 3.5   0.0 69.1   0.3 0.00 48.1   6.6 56.1   11.2 18.5   3.5
Artesian Sub 5/5/26 0640 59.9   5.7 44   6 38.2   1.4 3.6   1.8 E | 91 6.2   5.5 E | 88 0.00 13.4   0.0 74.1   0.5 0.00 59.1   6.4 65.7   11.5 13.8   5.7
North Henderson 5/5/26 0640 61.8   5.8 41   6 38.0   1.0 4.3   3.1 SW | 219 9.3   5.5 S | 175 0.00 8.9   0.1 79.1   0.6 0.00 61.6   5.9 65.6   11.2 19.6   3.8
Sandy Valley 5/5/26 0640 51.9   3.2 59   0 38.2   3.2 1.8   0.5 ENE | 68 4.6   3.0 E | 79 0.00 4.4   0.1 73.9   3.0 0.00 51.0   4.0 56.1   8.1 8.4   3.0
Searchlight 5/5/26 0650 49.9   4.9 61   9 36.9   0.3 3.8   3.8 N | 0 5.7   5.7 N | 11 0.00 4.6   0.2 69.4   4.3 0.00 46.9   7.7 53.0   11.8 9.4   5.0
Laughlin 5/5/26 0640 64.0   8.6 48   10 44.0   1.7 5.3   7.2 WSW | 242 9.7   9.2 SW | 236 0.00 4.1   0.1 83.0   2.1 0.00 63.1   9.3 70.1   12.6 12.8   13.0
Max     64.8 100 61.4 13.2 - 17.0 - 0.04 44.9 83.0 0.51 63.1 106.2 23.4
Avg     43.1 82 37.2 2.9 - 5.1 - 0.00 13.9 54.7 - - - -
Min     29.9 41 17.5 0.0 - 0.0 - 0.00 1.6 32.0 0.00 29.5 32.9 0.0

Latest Observation

65 Stations

Daily Data
as of 5/5/26 6:48 AM PDT
Station Date Daily Max Temp (°F) Daily Min Temp (°F) Daily Max RH (%) Daily Min RH (%) Wind Spd (mph) Wind Dir (°) Daily Max Wind (mph) Max Wind Dir (°) Time of Max Wind Daily Rain (In) Weekly Precip (In) Season Precip (In) Soil Moist (%) Fuel Temp (°F) Fuel Moisture (%) MinBV Day (V)
Hobart Mills 12/23/25 51.8   11.3 33.9   2.1 88   12 42   34 2.1   1.7 SW | 224 18.4   8.6 WSW | 240 2307 0.65 6.21 15.12 - 37.6   2.8 42   19 8.0   0.7
Prosser Dam 5/4/26 46.8   17.4 36.0   2.6 98   0 78   43 2.3   0.0 S | 175 14.3   17.3 W | 261 1910 0.63 0.79 8.43 20.8   0.1 41.0   7.1 41   10 12.5   0.0
West Incline Village 5/4/26 41.3   17.2 31.6   5.2 100   2 72   38 1.1   0.9 E | 79 10.6   18.1 S | 181 1548 0.62 1.01 7.52 32.4   1.7 37.7   7.1 69   29 12.4   0.1
Incline Village (Fairview Blvd) 5/4/26 42.0   18.2 32.1   6.5 100   3 71   38 0.1   0.7 SSW | 209 6.3   11.8 WSW | 247 1601 0.63 0.93 7.11 27.4   2.7 38.0   10.2 40   19 12.5   0.1
Incline Village (Diamond Peak) 5/4/26 39.6   15.2 31.3   5.1 99   3 75   34 0.0   1.1 N | 0 6.0   13.5 SSE | 153 1557 0.01 0.03 0.44 8.1   0.3 - - 12.2   0.1
Incline Village (Mill Creek) 5/4/26 43.6   16.0 32.3   6.7 98   4 82   46 0.3   2.1 ENE | 61 5.2   16.5 SE | 132 0608 0.92 1.14 7.05 9.8   0.0 - - 12.2   0.1
Incline Village (Lakeshore Blvd) 5/4/26 45.9   17.1 33.4   7.3 100   4 79   46 0.5   2.8 ENE | 57 7.7   16.0 SW | 222 1558 0.92 1.13 7.18 36.7   1.9 46.6   10.5 19   6 12.3   0.1
Glenbrook 5/4/26 45.3   14.9 32.5   7.4 97   4 74   37 0.8   1.9 ENE | 65 7.6   14.2 ENE | 68 1259 0.93 1.03 5.82 44.3   0.0 39.0   8.6 43   23 12.4   0.1
Zephyr Cove 5/4/26 44.1   16.0 32.8   8.3 98   9 79   42 0.0   0.0 N | 0 4.2   1.9 NNW | 346 1700 0.00 0.10 0.67 - 32.1   8.7 - 12.4   0.1
Kingsbury Grade 5/4/26 43.1   14.0 32.2   6.5 98   4 83   42 0.6   2.0 SW | 229 7.6   16.3 S | 174 1335 0.17 0.37 5.22 5.6   0.2 38.9   9.3 35   21 12.4   0.1
South Daggett Pass (Ridge) 5/4/26 40.1   13.0 30.9   6.2 100   4 84   43 2.5   0.9 WNW | 285 24.7   0.9 NW | 314 1656 0.14 0.27 3.59 6.5   0.0 37.0   7.8 28   14 12.4   0.1
Palomino Valley 5/4/26 64.6   9.6 44.9   3.3 88   10 42   25 5.7   0.2 SW | 216 31.6   14.3 SSE | 156 1751 0.27 0.27 1.41 6.7   0.0 54.8   5.1 11   3 12.6   0.0
East Cold Springs 5/4/26 59.1   9.0 40.8   3.2 89   8 52   28 11.9   4.0 WSW | 255 25.6   12.8 SW | 225 1508 0.52 0.59 2.00 1.5   0.0 49.2   4.4 27   6 12.6   0.0
Peavine 5/4/26 54.2   9.7 39.5   2.4 96   15 54   28 5.4   1.1 SW | 226 33.7   19.5 SSW | 205 1734 0.64 0.67 2.14 - - - 12.5   0.0
West Verdi Peak 5/4/26 49.3   15.7 35.4   5.4 93   3 58   31 3.1   0.7 WSW | 258 20.2   6.6 SE | 126 1938 0.68 0.78 6.39 16.7   0.3 43.3   6.3 35   13 12.5   0.0
West Verdi 5/4/26 55.5   13.1 39.6   5.3 96   5 58   36 3.9   0.2 W | 268 32.8   4.0 SE | 142 1759 0.50 0.65 5.92 7.9   0.1 47.4   6.7 32   13 12.6   0.0
South Verdi 5/4/26 49.7   16.2 39.9   5.9 88   1 59   34 21.2   9.7 WSW | 248 41.5   17.5 WSW | 248 1704 0.40 0.57 4.81 16.2   0.2 45.7   7.6 23   5 12.6   0.0
Northwest Reno 5/4/26 55.4   14.2 42.8   5.9 90   12 53   32 15.9   4.6 W | 274 49.6   10.5 WSW | 244 1711 0.26 0.33 1.33 23.6   0.3 - - 12.6   0.0
North Lawton 5/4/26 54.8   16.1 41.6   5.2 88   3 57   35 11.1   4.0 SW | 236 30.9   9.3 SW | 232 1859 0.38 0.44 2.14 - - - 12.5   0.0
West Reno (Mogul) 5/4/26 58.4   10.4 42.6   4.3 89   5 47   25 5.3   0.1 W | 260 28.9   20.7 SSW | 210 1714 0.30 0.34 4.24 38.6   0.1 50.1   6.7 18   11 12.5   0.0
Caughlin (Hunter Lake Trail) 9/15/25 78.6   1.3 52.5   3.7 58   7 23   2 4.2   2.5 S | 173 13.0   20.5 NNE | 31 1309 0.00 0.32 8.05 15.7   0.1 67.4   0.5 7   1 12.7   0.0
ArrowCreek 5/4/26 55.7   13.8 43.3   4.1 94   22 54   32 5.3   0.8 S | 187 30.3   26.7 SSE | 168 1624 0.49 0.69 5.25 - - - 12.3   0.0
Tracy 5/4/26 62.6   11.2 47.7   3.4 87   13 45   28 10.4   3.4 WSW | 256 22.6   25.2 WSW | 250 1638 0.37 0.37 1.23 8.0   0.0 54.6   7.6 18   10 12.6   0.0
Virginia Highlands 5/4/26 52.0   13.2 40.3   4.4 98   24 60   35 3.0   1.1 W | 260 20.5   20.6 WSW | 250 1633 0.41 0.44 2.15 7.6   0.4 45.0   8.6 25   12 12.6   0.0
Virginia City 5/4/26 49.5   14.3 38.6   6.7 98   27 49   24 5.8   0.5 S | 183 26.1   20.6 NNW | 339 0437 0.40 0.40 1.85 8.3   0.1 44.7   9.5 23   16 12.5   0.1
Six Mile Canyon 9/8/25 98.8   16.5 50.2   7.6 44   3 11   1 7.2   0.3 WSW | 252 27.0   4.6 SSE | 159 1325 0.00 0.00 0.89 12.6   0.1 69.7   3.0 4   0 12.4   0.2
Mt Rose Highway 4/29/26 56.6   7.9 35.6   4.1 63   16 31   6 2.2   0.0 NW | 305 10.8   4.2 NE | 35 1152 0.00 0.08 4.93 24.3   0.3 47.6   8.0 3   0 12.4   0.0
Pleasant Valley 5/4/26 53.2   17.9 43.3   2.5 92   8 59   35 4.1   0.4 SSW | 202 19.9   24.8 S | 169 1534 0.38 0.48 2.51 2.8   0.0 48.2   10.0 27   11 12.5   0.0
New Washoe City 5/4/26 52.1   16.0 42.4   1.8 94   14 64   40 2.2   2.4 ESE | 123 14.5   22.1 S | 177 1546 0.43 0.44 1.75 4.5   0.0 46.2   8.2 33   21 12.5   0.0
Franktown Creek 5/4/26 52.1   15.1 42.6   1.5 97   10 65   37 1.2   0.8 W | 278 13.7   14.9 SSW | 202 1619 0.55 0.63 5.96 11.1   0.1 45.9   6.4 27   10 12.6   0.0
Musgrove Creek 5/4/26 51.9   12.2 41.1   2.0 94   14 58   26 2.5   0.4 SSW | 206 25.5   1.1 S | 185 1919 0.62 0.96 7.99 44.2   2.9 44.3   6.2 35   8 12.5   0.0
East Carson 11/22/24 63.8   0.3 41.7   4.6 85   21 21   9 14.9   6.0 SW | 224 46.6   12.7 S | 171 1835 0.05 0.05 4.48 2.5   0.0 53.9   0.3 9   0 12.6   0.0
Kings Canyon 5/4/26 54.3   11.0 41.7   3.4 95   16 58   27 2.7   0.9 S | 181 14.2   14.9 WSW | 252 1645 0.55 0.61 4.47 15.1   0.2 47.0   6.5 32   19 12.5   0.1
Carson City (Voltaire Canyon) 5/4/26 54.4   12.8 42.0   7.2 88   6 58   33 8.0   0.1 WSW | 242 24.3   40.5 SSW | 211 1512 0.00 1.22 1.31 2.8   0.0 - - 12.6   0.0
Jacks Valley 5/4/26 53.6   13.5 41.5   4.6 92   8 53   26 5.2   1.2 W | 274 29.1   6.5 WNW | 301 1947 0.35 0.39 2.37 9.6   0.2 46.7   6.3 30   16 12.6   0.0
Genoa 5/4/26 56.2   11.9 43.8   3.2 96   6 53   25 0.7   0.2 SSW | 208 20.0   0.4 SSE | 154 1627 0.28 0.33 5.07 5.5   0.1 49.0   4.8 25   7 12.3   0.0
South Genoa (Walleys Hot Springs) 5/4/26 57.0   10.3 44.0   2.2 88   7 51   24 4.4   0.8 NW | 304 31.7   5.3 WSW | 249 1616 0.21 0.26 3.21 13.5   0.0 50.1   4.5 18   5 12.5   0.0
SW Gardnerville (HWY 88) 5/4/26 56.0   9.1 42.0   2.0 92   2 54   27 5.6   1.2 NNE | 32 28.3   19.8 S | 175 1432 0.00 0.03 0.59 3.4   0.0 49.2   2.4 24   3 12.4   0.0
Sheridan 5/4/26 57.4   9.2 44.2   0.7 93   10 50   20 3.5   0.3 SW | 230 16.0   22.6 SE | 126 1414 0.15 0.28 3.34 2.3   0.0 50.8   2.7 22   8 12.5   0.0
Ruhenstroth 5/4/26 54.4   9.7 44.5   1.1 92   10 52   19 5.7   1.3 SSE | 151 29.4   15.2 S | 180 1417 0.01 0.03 1.45 12.7   0.2 50.0   1.9 24   4 12.6   0.0
Double Spring 5/4/26 49.8   8.4 39.0   1.8 90   0 61   26 4.7   0.9 N | 355 23.0   9.6 SE | 137 1323 0.23 0.56 2.10 28.4   0.1 44.0   3.3 38   11 12.5   0.1
North Topaz Lake 5/4/26 52.8   8.2 42.3   3.9 88   10 49   16 5.2   1.6 WNW | 283 25.0   7.3 WNW | 292 1124 0.17 0.30 1.39 9.0   0.1 47.0   3.2 27   6 12.5   0.0
Wild Oat Mountain 5/4/26 52.3   6.5 40.1   5.1 90   11 55   22 5.2   0.9 W | 273 23.5   13.0 NW | 308 1234 0.21 0.26 1.51 16.5   0.1 45.2   5.4 23   10 12.6   0.0
Smith Valley 5/4/26 62.0   5.8 45.2   2.2 87   15 40   14 5.1   0.5 NW | 308 25.7   12.4 ESE | 107 1625 0.21 0.22 1.08 5.8   0.1 51.6   3.1 19   10 12.5   0.0
Pine Grove Mountain 5/4/26 43.5   9.9 31.4   3.4 96   3 57   22 6.1   0.2 W | 270 22.6   19.3 N | 350 1200 0.20 0.32 0.66 14.8   0.3 39.0   5.1 20   8 12.6   0.0
Paradise Hill 5/4/26 75.8   0.5 40.2   5.4 64   10 20   6 5.1   2.0 ENE | 60 34.6   4.0 NE | 36 1642 0.00 0.00 2.33 8.0   0.0 65.3   2.5 6   1 12.6   0.0
Winnemucca 5/4/26 75.1   0.4 44.4   7.4 77   30 17   1 7.5   1.1 SSW | 196 30.8   7.4 ENE | 63 1425 0.00 0.00 2.90 5.9   0.0 63.9   2.2 2   1 12.6   0.0
NE Elko 5/4/26 74.0   2.3 33.5   6.9 70   26 13   1 4.9   2.2 S | 172 35.0   5.8 S | 183 1542 0.02 0.02 2.31 12.4   0.0 58.3   0.1 5   2 12.5   0.0
North Elko 5/4/26 71.8   1.8 45.5   3.9 83   50 14   1 6.3   2.3 SW | 218 38.4   19.3 SSE | 150 1513 0.03 0.03 2.07 28.5   0.0 61.0   1.4 5   2 12.6   0.0
South Elko 5/4/26 125.7 43.4   6.5 93   7 20   4 6.3   2.5 SSE | 152 30.9   15.4 SSW | 192 1506 0.00 0.00 2.67 18.8   0.1 59.7   0.4 4   1 12.6   0.0
Lamoille 1/27/26 42.4   2.7 21.5   6.4 60   0 25   6 2.6   0.5 SE | 125 8.2   4.1 SE | 139 0137 0.00 0.00 0.67 12.3   0.2 26.9   1.3 11   0 8.5   2.8
Reid Gardner Sub 5/4/26 80.6   12.4 64.2   15.9 37   2 15   6 8.5   3.4 S | 190 26.2   3.8 SSW | 195 1556 0.00 0.00 0.56 24.9   0.2 75.9   2.3 1   0 12.7   0.0
Corn Creek 5/4/26 75.7   7.9 57.0   4.8 44   19 12   0 13.1   5.9 E | 79 41.1   2.9 ENE | 72 1711 0.00 0.00 0.63 4.0   0.0 68.1   5.8 2   1 12.5   0.0
Lucky Strike 5/4/26 64.9   5.3 48.0   8.6 47   13 12   1 9.2   0.7 SSW | 198 32.2   8.9 SE | 124 1333 0.00 0.00 1.21 4.4   0.0 60.2   5.9 3   0 12.6   0.0
Lower Angel Peak 5/4/26 59.9   5.6 37.0   8.9 51   7 11   5 5.7   0.0 SSE | 159 25.1   6.5 NNW | 334 1121 0.00 0.00 1.93 10.3   0.1 54.5   3.6 3   0 12.6   0.0
Angel Peak 5/4/26 49.0   6.5 35.5   6.3 60   0 13   5 8.2   9.2 SSE | 166 34.5   15.8 SSE | 149 0114 0.00 0.01 84.71 3.5   0.0 45.4   3.9 5   1 12.5   0.0
Upper Kyle Canyon 5/4/26 51.9   6.0 34.5   7.7 54   3 13   11 5.0   0.7 NNW | 334 26.7   3.7 WNW | 299 1453 0.00 0.00 5.08 13.7   0.1 51.9   1.9 7   0 12.6   0.1
Mt Charleston 5/4/26 51.4   7.0 35.8   8.4 54   4 14   9 4.5   0.9 WSW | 246 25.3   1.2 NW | 311 1542 0.00 0.00 5.28 18.4   0.1 54.2   0.2 27   1 12.6   0.0
Mid Kyle Canyon 5/4/26 59.1   6.8 40.8   6.6 48   6 14   3 10.5   1.6 WSW | 252 31.3   2.1 W | 260 1659 0.00 0.00 2.08 7.1   0.0 54.8   5.7 5   0 12.7   0.1
Blue Diamond 5/4/26 70.5   11.4 54.7   8.5 45   15 15   5 8.8   2.4 WNW | 290 29.7   1.7 WNW | 302 2148 0.00 0.00 0.85 3.5   0.0 - 4   1 12.8   0.0
Artesian Sub 5/4/26 80.3   12.7 65.1   2.2 40   18 11   1 7.2   3.5 SSE | 154 24.3   0.9 SE | 124 1343 0.00 0.00 0.35 13.4   0.0 - 0   0 12.7   0.0
North Henderson 5/4/26 79.6   12.7 65.3   3.0 38   6 11   1 10.6   3.9 SW | 225 27.8   4.7 SW | 224 1424 0.00 0.00 0.52 8.8   0.1 75.8   6.3 5   1 12.8   0.0
Sandy Valley 5/4/26 71.4   15.2 55.0   0.6 60   22 20   7 7.4   0.7 W | 268 26.3   5.1 WSW | 241 1655 0.00 0.00 0.62 4.5   0.0 66.4   10.0 4   1 12.7   0.0
Searchlight 5/4/26 69.4   13.7 52.3   4.4 53   19 18   3 10.2   0.8 S | 187 29.9   5.2 S | 180 1311 0.00 0.00 0.51 4.7   0.0 65.4   10.3 1   1 12.6   0.0
Laughlin 5/4/26 82.7   14.2 69.0   0.4 40   12 16   4 12.3   2.5 S | 178 28.0   7.4 S | 183 1255 0.00 0.00 0.29 4.1   0.0 76.8   8.9 4   1 12.8   0.0
Max   125.7 69.0 100 84 21.2 - 49.6 - - 0.93 - 84.71 44.3 76.8 69 12.8
Avg   - - - - 5.8 - - - - - - - 13.2 51.1 20 -
Min   39.6 30.9 37 11 0.0 - 4.2 - - 0.00 - 0.29 1.5 32.1 0 12.2

Fosberg 6Hr Max

Map

Hourly Data

Fosberg 6Hr Max

Map

Hourly Data